• In Moldova, Republic
  • List of Countries
  • For 7 days
  • Water Temperature
  • Satellite Maps
  • Weather Map
  • Weather Widgets
  • user-avatar
    Login

    Hourly Weather Tibissa

    Today, 30 March, Thursday

    Time Temperature Precipitation Wind Pressure Humidity
    00:00 +5°C° 0 mm 2 mps 689 mmHg 89%
    01:00 +4°C° 0 mm 2 mps 689 mmHg 90%
    02:00 +4°C° 0 mm 2 mps 689 mmHg 90%
    03:00 +4°C° 0 mm 2 mps 689 mmHg 90%
    04:00 +4°C° 0 mm 2 mps 689 mmHg 90%
    05:00 +4°C° 0 mm 2 mps 689 mmHg 89%
    06:00 +4°C° 0 mm 2 mps 689 mmHg 87%
    07:00 +4°C° 0 mm 2 mps 689 mmHg 86%
    08:00 +7°C° 0 mm 3 mps 690 mmHg 73%
    09:00 +9°C° 0 mm 3 mps 691 mmHg 60%
    10:00 +12°C° 0 mm 3 mps 691 mmHg 47%
    11:00 +13°C° 0 mm 3 mps 691 mmHg 41%
    12:00 +16°C° 0 mm 3 mps 691 mmHg 34%
    13:00 +17°C° 0 mm 2 mps 692 mmHg 28%
    14:00 +17°C° 0 mm 2 mps 691 mmHg 27%
    15:00 +18°C° 0 mm 2 mps 691 mmHg 26%
    16:00 +18°C° 0 mm 2 mps 691 mmHg 24%
    17:00 +16°C° 0 mm 2 mps 691 mmHg 31%
    18:00 +14°C° 0 mm 2 mps 690 mmHg 38%
    19:00 +12°C° 0 mm 2 mps 690 mmHg 44%
    20:00 +10°C° 0 mm 2 mps 690 mmHg 49%
    21:00 +11°C° 0 mm 1 mps 690 mmHg 53%
    22:00 +10°C° 0 mm 1 mps 691 mmHg 57%
    23:00 +9°C° 0 mm 1 mps 691 mmHg 58%

    Tomorrow, 31 March, Friday

    Time Temperature Precipitation Wind Pressure Humidity
    00:00 +9°C° 0 mm 1 mps 690 mmHg 58%
    01:00 +8°C° 0 mm 1 mps 690 mmHg 59%
    02:00 +7°C° 0 mm 2 mps 690 mmHg 59%
    03:00 +7°C° 0 mm 2 mps 690 mmHg 59%
    04:00 +7°C° 0 mm 2 mps 689 mmHg 59%
    05:00 +7°C° 0 mm 2 mps 689 mmHg 58%
    06:00 +7°C° 0 mm 2 mps 689 mmHg 56%
    07:00 +7°C° 0 mm 2 mps 690 mmHg 54%
    08:00 +10°C° 0 mm 3 mps 690 mmHg 45%
    09:00 +13°C° 0 mm 3 mps 691 mmHg 37%
    10:00 +17°C° 0 mm 4 mps 691 mmHg 28%
    11:00 +19°C° 0 mm 4 mps 691 mmHg 25%
    12:00 +20°C° 0 mm 5 mps 691 mmHg 22%
    13:00 +21°C° 0 mm 5 mps 691 mmHg 19%
    14:00 +21°C° 0 mm 5 mps 690 mmHg 20%
    15:00 +21°C° 0 mm 5 mps 690 mmHg 20%
    16:00 +22°C° 0 mm 5 mps 689 mmHg 20%
    17:00 +20°C° 0 mm 5 mps 689 mmHg 24%
    18:00 +17°C° 0 mm 5 mps 688 mmHg 29%
    19:00 +15°C° 0 mm 4 mps 688 mmHg 33%
    20:00 +14°C° 0 mm 4 mps 688 mmHg 35%
    21:00 +13°C° 0 mm 4 mps 688 mmHg 36%
    22:00 +13°C° 0 mm 3 mps 688 mmHg 38%
    23:00 +12°C° 0 mm 3 mps 687 mmHg 38%

    Day after tomorrow, 1 April, Saturday

    Time Temperature Precipitation Wind Pressure Humidity
    00:00 +12°C° 0 mm 3 mps 687 mmHg 39%
    01:00 +11°C° 0 mm 3 mps 687 mmHg 40%
    02:00 +11°C° 0 mm 3 mps 686 mmHg 40%
    03:00 +10°C° 0 mm 3 mps 686 mmHg 40%
    04:00 +10°C° 0 mm 4 mps 685 mmHg 40%
    05:00 +10°C° 0 mm 4 mps 685 mmHg 40%
    06:00 +10°C° 0 mm 4 mps 685 mmHg 40%
    07:00 +11°C° 0 mm 4 mps 685 mmHg 40%
    08:00 +13°C° 0 mm 5 mps 686 mmHg 35%
    09:00 +16°C° 0 mm 7 mps 686 mmHg 30%
    10:00 +18°C° 0 mm 8 mps 687 mmHg 24%
    11:00 +20°C° 0 mm 8 mps 686 mmHg 23%
    12:00 +21°C° 0 mm 8 mps 686 mmHg 22%
    13:00 +22°C° 0 mm 8 mps 685 mmHg 21%
    14:00 +21°C° 0.1 mm 8 mps 685 mmHg 24%
    15:00 +21°C° 0.1 mm 8 mps 684 mmHg 26%
    16:00 +20°C° 0.1 mm 8 mps 683 mmHg 29%
    17:00 +17°C° 1.3 mm 7 mps 683 mmHg 43%
    18:00 +14°C° 1.3 mm 6 mps 683 mmHg 57%
    19:00 +10°C° 1.3 mm 5 mps 683 mmHg 71%
    20:00 +10°C° 0.3 mm 4 mps 683 mmHg 75%
    21:00 +9°C° 0.3 mm 3 mps 683 mmHg 79%
    22:00 +8°C° 0.3 mm 2 mps 684 mmHg 83%
    23:00 +8°C° 0 mm 2 mps 683 mmHg 84%

    2 April, Sunday

    Time Temperature Precipitation Wind Pressure Humidity
    00:00 +8°C° 0 mm 1 mps 683 mmHg 84%
    01:00 +8°C° 0 mm 1 mps 683 mmHg 85%
    02:00 +6°C° 0 mm 2 mps 683 mmHg 82%
    03:00 +6°C° 0 mm 2 mps 682 mmHg 80%
    04:00 +4°C° 0 mm 3 mps 682 mmHg 78%
    05:00 +4°C° 0 mm 3 mps 682 mmHg 77%
    06:00 +4°C° 0 mm 3 mps 682 mmHg 76%
    07:00 +4°C° 0 mm 3 mps 683 mmHg 75%
    08:00 +6°C° 0 mm 4 mps 683 mmHg 67%
    09:00 +8°C° 0 mm 5 mps 683 mmHg 59%
    10:00 +10°C° 0 mm 6 mps 684 mmHg 50%
    11:00 +11°C° 0 mm 6 mps 684 mmHg 44%
    12:00 +14°C° 0 mm 6 mps 684 mmHg 37%
    13:00 +15°C° 0 mm 7 mps 683 mmHg 31%
    14:00 +14°C° 0.1 mm 7 mps 683 mmHg 33%
    15:00 +14°C° 0.1 mm 7 mps 683 mmHg 35%
    16:00 +14°C° 0.1 mm 6 mps 682 mmHg 38%
    17:00 +12°C° 0.3 mm 5 mps 682 mmHg 44%
    18:00 +11°C° 0.3 mm 4 mps 682 mmHg 50%
    19:00 +10°C° 0.3 mm 3 mps 682 mmHg 55%
    20:00 +9°C° 0 mm 3 mps 682 mmHg 58%
    21:00 +8°C° 0 mm 3 mps 682 mmHg 61%
    22:00 +7°C° 0 mm 3 mps 682 mmHg 65%
    23:00 +7°C° 0 mm 3 mps 682 mmHg 65%

    3 April, Monday

    Time Temperature Precipitation Wind Pressure Humidity
    00:00 +6°C° 0 mm 4 mps 682 mmHg 66%
    01:00 +6°C° 0 mm 4 mps 681 mmHg 67%
    02:00 +6°C° 0.1 mm 5 mps 681 mmHg 71%
    03:00 +5°C° 0.1 mm 6 mps 681 mmHg 75%
    04:00 +5°C° 0.1 mm 7 mps 681 mmHg 79%
    05:00 +5°C° 0.3 mm 8 mps 681 mmHg 80%
    06:00 +5°C° 0.3 mm 8 mps 682 mmHg 81%
    07:00 +5°C° 0.3 mm 9 mps 682 mmHg 82%
    08:00 +6°C° 0.4 mm 9 mps 682 mmHg 80%
    09:00 +6°C° 0.4 mm 9 mps 683 mmHg 79%
    10:00 +7°C° 0.4 mm 10 mps 683 mmHg 77%
    11:00 +8°C° 0.1 mm 9 mps 683 mmHg 75%
    12:00 +8°C° 0.1 mm 9 mps 683 mmHg 72%
    13:00 +10°C° 0.1 mm 9 mps 684 mmHg 70%
    14:00 +10°C° 0.1 mm 9 mps 684 mmHg 68%
    15:00 +11°C° 0.1 mm 9 mps 684 mmHg 66%
    16:00 +11°C° 0.1 mm 9 mps 684 mmHg 65%
    17:00 +10°C° 0.1 mm 7 mps 684 mmHg 71%
    18:00 +9°C° 0.1 mm 6 mps 684 mmHg 77%
    19:00 +8°C° 0.1 mm 5 mps 684 mmHg 83%
    20:00 +7°C° 0 mm 5 mps 685 mmHg 85%
    21:00 +7°C° 0 mm 5 mps 685 mmHg 88%
    22:00 +6°C° 0 mm 5 mps 685 mmHg 91%
    23:00 +6°C° 0 mm 5 mps 685 mmHg 91%

    4 April, Tuesday

    Time Temperature Precipitation Wind Pressure Humidity
    00:00 +6°C° 0 mm 5 mps 685 mmHg 91%
    01:00 +5°C° 0 mm 5 mps 685 mmHg 91%
    02:00 +5°C° 0 mm 6 mps 685 mmHg 90%
    03:00 +5°C° 0 mm 6 mps 685 mmHg 90%
    04:00 +5°C° 0 mm 6 mps 685 mmHg 89%
    05:00 +5°C° 0 mm 6 mps 685 mmHg 89%
    06:00 +5°C° 0 mm 6 mps 685 mmHg 89%
    07:00 +5°C° 0 mm 6 mps 685 mmHg 89%
    08:00 +8°C° 0 mm 6 mps 686 mmHg 78%
    09:00 +10°C° 0 mm 7 mps 686 mmHg 67%
    10:00 +11°C° 0 mm 7 mps 687 mmHg 56%
    11:00 +14°C° 0 mm 7 mps 687 mmHg 52%
    12:00 +15°C° 0 mm 7 mps 687 mmHg 49%
    13:00 +16°C° 0 mm 8 mps 687 mmHg 45%
    14:00 +15°C° 0.2 mm 8 mps 686 mmHg 47%
    15:00 +15°C° 0.2 mm 8 mps 686 mmHg 48%
    16:00 +15°C° 0.2 mm 8 mps 686 mmHg 50%
    17:00 +12°C° 0 mm 7 mps 686 mmHg 57%
    18:00 +11°C° 0 mm 6 mps 686 mmHg 63%
    19:00 +9°C° 0 mm 5 mps 686 mmHg 70%
    20:00 +8°C° 0 mm 5 mps 686 mmHg 75%
    21:00 +7°C° 0 mm 4 mps 686 mmHg 80%
    22:00 +6°C° 0 mm 4 mps 687 mmHg 84%
    23:00 +7°C° 0 mm 3 mps 686 mmHg 85%
    Show more